Overview Statistics Trail Chart Weather Telemetry Raw packets
 

This is the latest recevied weather packets stored in our database for station/object OE3AOG-10. If no packets are shown the sender has not sent any weather packets the latest 10 day(s).

<< 1 2 3 4 5 6 >>
Time Temp. Humidity Pressure Rain* Wind** Luminosity Snow
1788453727 26.11° C 34% 1020.3 hPa - - - -
1788450127 26.67° C 34% 1020.2 hPa - - - -
1788446527 27.78° C 33% 1020.2 hPa - - - -
1788442927 28.33° C 31% 1020.3 hPa - - - -
1788439328 27.78° C 32% 1021 hPa - - - -
1788435728 28.33° C 32% 1021.4 hPa - - - -
1788432127 28.89° C 33% 1021.5 hPa - - - -
1788428527 27.78° C 37% 1021.9 hPa - - - -
1788424927 26.11° C 43% 1022.5 hPa - - - -
1788421327 23.33° C 51% 1022.4 hPa - - - -
1788417726 20.56° C 56% 1022.4 hPa - - - -
1788414126 19.44° C 56% 1022.3 hPa - - - -
1788410526 19.44° C 54% 1021.8 hPa - - - -
1788406926 18.89° C 52% 1021.7 hPa - - - -
1788403326 19.44° C 50% 1021.5 hPa - - - -
1788399725 20° C 49% 1021.5 hPa - - - -
1788396126 20° C 48% 1021.7 hPa - - - -
1788392526 20.56° C 47% 1021.8 hPa - - - -
1788388926 20.56° C 47% 1021.6 hPa - - - -
1788385326 20° C 49% 1021.4 hPa - - - -
1788381724 20° C 49% 1021.3 hPa - - - -
1788378124 21.11° C 48% 1021.2 hPa - - - -
1788374525 22.78° C 47% 1020.6 hPa - - - -
1788370924 25° C 42% 1020.3 hPa - - - -
1788367324 26.67° C 38% 1020.3 hPa - - - -

* Rain since midnight (hover to see other rain measurements)
** Current wind speed in m/s (hover to see current wind gust speed)